This demonstration page uses our WeatherBlox Daily Observations layout. Learn more.

Left ArrowRight Arrow

Hourly Observations for February 28, 2016

Temp ( °F °C ) Dew Point ( °F °C ) Humidity (%) Winds ( mph kmh ) Pressure ( in mb ) Visibility ( mi km ) Precip ( " mm )
12:14 am 00:14 Clear 41 5 32 undefined 70 70 SSW 8 13 30.00 1016 10 16 N/A
12:35 am 00:35 Clear 41 5 32 undefined 70 70 SSW 9 15 29.97 1015 10 16 N/A
12:54 am 00:54 Clear 39 4 32 undefined 75 75 S 7 11 29.97 1015 10 16 N/A
1:14 am 01:14 Clear 39 4 32 undefined 75 75 S 7 11 29.97 1015 10 16 N/A
1:35 am 01:35 Clear 39 4 32 undefined 75 75 S 8 13 29.97 1015 10 16 N/A
1:54 am 01:54 Clear 39 4 32 undefined 75 75 S 8 13 29.97 1015 10 16 N/A
2:14 am 02:14 Clear 39 4 32 undefined 75 75 S 10 17 29.94 1014 10 16 N/A
2:35 am 02:35 Clear 39 4 32 undefined 75 75 S 9 15 29.94 1014 10 16 N/A
2:54 am 02:54 Clear 39 4 32 undefined 75 75 S 10 17 29.94 1014 10 16 N/A
3:14 am 03:14 Clear 39 4 32 undefined 75 75 S 10 17 29.94 1014 10 16 N/A
3:35 am 03:35 Clear 39 4 32 undefined 75 75 S 10 17 29.94 1014 10 16 N/A
3:54 am 03:54 Clear 39 4 32 undefined 75 75 S 10 17 29.94 1014 10 16 N/A
4:14 am 04:14 Clear 39 4 32 undefined 75 75 S 10 17 29.91 1013 10 16 N/A
4:35 am 04:35 Clear 39 4 32 undefined 75 75 S 9 15 29.91 1013 10 16 N/A
4:54 am 04:54 Clear 39 4 32 undefined 75 75 S 10 17 29.91 1013 10 16 N/A
5:14 am 05:14 Clear 39 4 32 undefined 75 75 S 9 15 29.91 1013 10 16 N/A
5:35 am 05:35 Clear 39 4 32 undefined 75 75 S 10 17 29.91 1013 10 16 N/A
5:54 am 05:54 Clear 39 4 32 undefined 75 75 S 10 17 29.91 1013 10 16 N/A
6:15 am 06:15 Clear 37 3 32 undefined 81 81 S 10 17 29.91 1013 10 16 N/A
6:34 am 06:34 Clear 37 3 32 undefined 81 81 S 10 17 29.91 1013 10 16 N/A
6:54 am 06:54 Clear 39 4 34 1 81 81 S 9 15 29.91 1013 10 16 N/A
7:15 am 07:15 Clear 39 4 34 1 81 81 S 10 17 29.91 1013 10 16 N/A
7:34 am 07:34 Sunny 39 4 34 1 81 81 S 12 19 29.91 1013 10 16 N/A
7:54 am 07:54 Sunny 41 5 34 1 76 76 S 13 20 29.88 1012 10 16 N/A
8:15 am 08:15 Sunny 43 6 34 1 71 71 S 14 22 29.88 1012 10 16 N/A
8:34 am 08:34 Sunny 43 6 36 2 76 76 S 13 20 29.88 1012 10 16 N/A
8:54 am 08:54 Sunny 45 7 36 2 71 71 S 14 22 29.88 1012 10 16 N/A
9:14 am 09:14 Sunny 46 8 37 3 71 71 SSW 12 19 29.88 1012 10 16 N/A
9:34 am 09:34 Sunny 48 9 37 3 66 66 SSW 15 24 29.88 1012 10 16 N/A
9:54 am 09:54 Sunny 50 10 37 3 62 62 SSW 15 24 29.83 1010 10 16 N/A
10:14 am 10:14 Sunny 52 11 37 3 58 58 SSW 16 26 29.83 1010 10 16 N/A
10:35 am 10:35 Sunny 54 12 39 4 58 58 SSW 16 26 29.83 1010 10 16 N/A
10:54 am 10:54 Sunny 55 13 39 4 55 55 SW 20 31 29.83 1010 10 16 N/A
11:14 am 11:14 Sunny 57 14 39 4 51 51 SW 18 30 29.80 1009 10 16 N/A
11:35 am 11:35 Sunny 61 16 41 5 48 48 SW 20 31 29.80 1009 10 16 N/A
11:54 am 11:54 Sunny 61 16 41 5 48 48 SSW 21 33 29.77 1008 10 16 N/A
12:14 pm 12:14 Sunny 63 17 43 6 49 49 SW 26 43 29.77 1008 10 16 N/A
12:35 pm 12:35 Sunny 63 17 43 6 49 49 SW 29 46 29.77 1008 10 16 N/A
12:54 pm 12:54 Sunny 63 17 41 5 45 45 SW 25 41 29.74 1007 10 16 N/A
1:14 pm 13:14 Sunny 64 18 43 6 46 46 SW 21 33 29.68 1005 10 16 N/A
1:35 pm 13:35 Sunny 64 18 41 5 43 43 SW 20 31 29.68 1005 10 16 N/A
1:54 pm 13:54 Sunny 64 18 41 5 43 43 SW 30 48 29.65 1004 10 16 N/A
2:14 pm 14:14 Sunny 66 19 41 5 40 40 SW 22 35 29.65 1004 10 16 N/A
2:35 pm 14:35 Sunny 64 18 39 4 40 40 SSW 30 48 29.62 1003 10 16 N/A
2:54 pm 14:54 Sunny 66 19 41 5 40 40 SSW 23 37 29.62 1003 10 16 N/A
3:14 pm 15:14 Sunny 66 19 39 4 37 37 SSW 29 46 29.62 1003 10 16 N/A
3:35 pm 15:35 Sunny 66 19 37 3 35 35 SW 31 50 29.62 1003 10 16 N/A
3:54 pm 15:54 Sunny 66 19 37 3 35 35 SW 24 39 29.62 1003 10 16 N/A
4:15 pm 16:15 Sunny 64 18 39 4 40 40 SSW 30 48 29.59 1002 10 16 N/A
4:34 pm 16:34 Sunny 64 18 39 4 40 40 SW 30 48 29.59 1002 10 16 N/A
4:54 pm 16:54 Sunny 64 18 39 4 40 40 SSW 24 39 29.59 1002 10 16 N/A
5:15 pm 17:15 Sunny 64 18 37 3 37 37 SSW 25 41 29.59 1002 10 16 N/A
5:34 pm 17:34 Sunny 63 17 39 4 42 42 SSW 18 30 29.59 1002 10 16 N/A
5:54 pm 17:54 Sunny 63 17 39 4 42 42 SSW 22 35 29.59 1002 10 16 N/A
6:15 pm 18:15 Mostly Cloudy 63 17 39 4 42 42 SW 31 50 29.59 1002 10 16 N/A
6:34 pm 18:34 Cloudy 63 17 39 4 42 42 SW 16 26 29.59 1002 10 16 N/A
6:54 pm 18:54 Cloudy 61 16 41 5 48 48 SW 21 33 29.62 1003 10 16 N/A
7:15 pm 19:15 Cloudy 61 16 41 5 48 48 SW 23 37 29.62 1003 10 16 N/A
7:34 pm 19:34 Cloudy 61 16 41 5 48 48 SW 26 43 29.62 1003 10 16 N/A
7:54 pm 19:54 Cloudy 61 16 41 5 48 48 SW 25 41 29.62 1003 10 16 N/A
8:15 pm 20:15 Cloudy 59 15 43 6 55 55 SW 24 39 29.62 1003 10 16 N/A
8:34 pm 20:34 Cloudy 57 14 45 7 63 63 SW 23 37 29.62 1003 10 16 N/A
8:54 pm 20:54 Cloudy 57 14 45 7 63 63 SW 28 44 29.62 1003 10 16 N/A
9:15 pm 21:15 Cloudy 57 14 45 7 63 63 SW 28 44 29.62 1003 10 16 N/A
9:34 pm 21:34 Cloudy 57 14 45 7 63 63 SW 21 33 29.62 1003 10 16 N/A
9:54 pm 21:54 Cloudy 55 13 45 7 67 67 SW 23 37 29.59 1002 10 16 N/A
10:14 pm 22:14 Cloudy 55 13 45 7 67 67 SW 26 43 29.59 1002 10 16 N/A
10:34 pm 22:34 Cloudy 55 13 45 7 67 67 SW 21 33 29.62 1003 10 16 N/A
10:55 pm 22:55 Cloudy 50 10 46 8 88 88 WNW 25 41 29.65 1004 5 8 N/A
11:14 pm 23:14 Cloudy 48 9 46 8 94 94 W 21 33 29.68 1005 7 11 N/A
11:34 pm 23:34 Cloudy 46 8 45 7 93 93 W 18 30 29.71 1006 7 11 N/A
11:55 pm 23:55 Cloudy 46 8 43 6 87 87 W 20 31 29.71 1006 10 16 N/A

Powered by AerisWeather